STSAT-3 (39422 NORAD) Tracking and Keplerian Element Data

This shows tracking and keplerian element data for the satellite.

Feedback or suggestion? Click here.




ElementValue
Catalog39422
NameSTSAT-3
Epoch Orbit60951
Epoch Day35.17402032
Epoch Year2025
RAAN12.0934
Inclination97.5493
Eccentricity0.001863
Argument of Perigee304.1178
Mean Anonmoly55.8277
Mean Motion14.98268596
Decay Rate5.338E-05
L11 39422U 13066G 25035.17402032 .00005338 00000+0 45214-3 0 9997
L22 39422 97.5493 12.0934 0018630 304.1178 55.8277 14.98268596609513



Live tracking and technical data element details for STSAT-3 (NORAD 39422). STSAT-3 can be tracked NOW for your location showing map with azimuth and elevation plus other details from your city location.







IsCatalogInMostPopularTable: catalog: 39422, numindb: 593
Update: records affected: 1



GetName: 39422 STSAT-3

Hit Count: updated at: Fri, 16 May 2025 11:57:27 GMT